"TOA5","AWS1","CR1000","7964","CR1000.Std.14","CPU:AWS1_114.CR1","64363","TBL110"
"TIMESTAMP","RECORD","Wind_spd_WVc(1)","Wind_spd_WVc(2)","Air_Temp_Avg","Humidity_Avg","SW_upper_Wm2_Avg","Rain_Tot","Press_Avg","Issui_Tot","Depth_cm","SR50A_Raw","Quality","Ground_Temp_Avg(1)","Ground_Temp_Avg(2)","SW_lower_Wm2_Avg","Albedo_Avg","SWC_per(1)","SWC_per(2)","Period(1)","Period(2)"
"TS","RN","","","","","","","","","","","","","","","","","","",""
"","","WVc","WVc","Avg","Avg","Avg","Tot","Avg","Tot","Smp","Smp","Smp","Avg","Avg","Avg","Avg","Smp","Smp","Smp","Smp"
"2016-02-29 00:00:00",224557,1.004,156.2,1.379,51.76,0,0,865.9855,0,23.42,2.938,190,0.616,1.2,0.05308015,0,51.27,59.26,33.61,35.51
"2016-02-29 00:10:00",224558,0.746,133.6,1.401,53.48,0,0,865.8503,0,23.35,2.939,190,0.633,1.189,0,0,51.27,59.26,33.61,35.51
"2016-02-29 00:20:00",224559,1.082,148.8,1.488,55.04,0,0,865.7419,0,23.34,2.938,190,0.622,1.186,0,0,51.27,59.26,33.61,35.51
"2016-02-29 00:30:00",224560,0.942,160.6,1.559,56.53,0,0,865.5091,0,23.45,2.937,190,0.613,1.174,0,0,51.27,59.26,33.61,35.51
"2016-02-29 00:40:00",224561,1.012,135.3,1.549,59.92,0,0,865.5325,0,23.5,2.937,189,0.598,1.164,0.01895505,0,51.27,59.26,33.61,35.51
"2016-02-29 00:50:00",224562,0.98,99.9,1.373,59.46,0,0,865.4607,0,23.45,2.938,190,0.578,1.158,0,0,51.27,59.26,33.61,35.51
"2016-02-29 01:00:00",224563,1.13,167.3,1.41,62.05,0,0,865.3456,0,23.35,2.938,189,0.56,1.154,0,0,51.27,59.32,33.61,35.52
"2016-02-29 01:10:00",224564,1.037,73.21,1.448,64.29,0,0,865.3684,0,23.35,2.939,189,0.557,1.145,0,0,51.27,59.26,33.61,35.51
"2016-02-29 01:20:00",224565,0.834,150.4,1.457,66.82,0,0,865.3051,0,23.41,2.937,192,0.554,1.116,0,0,51.27,59.26,33.61,35.51
"2016-02-29 01:30:00",224566,0.766,139,1.708,67.25,0,0,864.9954,0,23.66,2.934,189,0.552,1.112,0.02274503,0,51.27,59.26,33.61,35.51
"2016-02-29 01:40:00",224567,0.858,138.3,1.751,67.46,0,0,864.8184,0,23.41,2.937,190,0.554,1.114,0,0,51.27,59.26,33.61,35.51
"2016-02-29 01:50:00",224568,0.681,200.1,1.69,68.86,0,0,864.5234,0,23.49,2.936,189,0.561,1.115,0,0,51.27,59.26,33.61,35.51
"2016-02-29 02:00:00",224569,1.024,58.3,1.783,70.09,0,0,864.6603,0,23.34,2.937,191,0.558,1.136,0.007581678,0,51.27,59.26,33.61,35.51
"2016-02-29 02:10:00",224570,0.63,22.8,1.65,72.52,0,0,864.6815,0,23.4,2.938,189,0.57,1.157,0,0,51.27,59.26,33.61,35.51
"2016-02-29 02:20:00",224571,0.528,41.86,1.605,73.65,0,0,864.5887,0,23.39,2.937,190,0.563,1.159,0.007581678,0,51.27,59.26,33.61,35.51
"2016-02-29 02:30:00",224572,0.657,19.23,1.734,73.92,0,0,864.3506,0,23.52,2.935,190,0.588,1.153,0,0,51.27,59.26,33.61,35.51
"2016-02-29 02:40:00",224573,0.702,100.3,1.904,74.18,0,0,864.1885,0,23.35,2.936,189,0.614,1.166,0.007581678,0,51.21,59.26,33.6,35.51
"2016-02-29 02:50:00",224574,0.738,131.4,2.007,74.68,0,0,863.9609,0,23.48,2.934,191,0.56,1.183,0,0,51.21,59.26,33.6,35.51
"2016-02-29 03:00:00",224575,0.757,110.4,1.89,76.13,0,0,863.7607,0,23.52,2.935,190,0.623,1.174,0,0,51.27,59.26,33.61,35.51
"2016-02-29 03:10:00",224576,0.615,105,1.886,77.29,0,0,863.569,0,23.73,2.932,191,0.626,1.172,0,0,51.27,59.26,33.61,35.51
"2016-02-29 03:20:00",224577,0.794,108.2,2.069,76.95,0,0,863.472,0,23.53,2.934,190,0.606,1.184,0.0492809,0,51.27,59.26,33.61,35.51
"2016-02-29 03:30:00",224578,1.381,155,2.135,77.19,0,0,863.3941,0,23.49,2.933,186,0.615,1.17,0.003790839,0,51.21,59.26,33.6,35.51
"2016-02-29 03:40:00",224579,1.072,116.4,2.159,77.49,0,0,863.1581,0,23.58,2.933,187,0.609,1.166,0,0,51.27,59.26,33.61,35.51
"2016-02-29 03:50:00",224580,1.205,148.1,2.275,77.36,0,0,862.9938,0,23.5,2.932,190,0.595,1.189,0.007581678,0,51.27,59.26,33.61,35.51
"2016-02-29 04:00:00",224581,0.935,149.6,2.308,77.64,0,0,862.8864,0,23.54,2.932,178,0.596,1.193,0,0,51.27,59.2,33.61,35.5
"2016-02-29 04:10:00",224582,0.719,155.3,2.315,77.95,0,0,862.7431,0,23.59,2.932,192,0.603,1.196,0,0,51.21,59.26,33.6,35.51
"2016-02-29 04:20:00",224583,0.891,72.76,2.329,79.45,0,0,862.5914,0,23.51,2.933,191,0.606,1.194,0.1137252,0,51.27,59.26,33.61,35.51
"2016-02-29 04:30:00",224584,0.888,88,2.097,83,0,0,862.4291,0,23.38,2.935,186,0.595,1.19,0.1213068,0,51.21,59.26,33.6,35.51
"2016-02-29 04:40:00",224585,1.103,92.1,2.052,85,0,0,862.2922,0,23.53,2.934,169,0.603,1.196,0.3373846,0,51.21,59.26,33.6,35.51
"2016-02-29 04:50:00",224586,0.882,37.91,1.948,87.9,0,0,862.2205,0,23.58,2.933,169,0.622,1.196,0.1933328,0,51.21,59.26,33.6,35.51
"2016-02-29 05:00:00",224587,0.951,97.4,2.061,87.2,0,0,862.0499,0,23.68,2.932,169,0.607,1.196,0.4511098,0,51.21,59.26,33.6,35.51
"2016-02-29 05:10:00",224588,1.05,136.3,2.241,85.6,0,0,861.9909,0,23.46,2.933,186,0.602,1.196,0.6330701,0,51.27,59.26,33.61,35.51
"2016-02-29 05:20:00",224589,1.067,61,2.197,86.9,0,0,861.8687,0,23.79,2.93,187,0.602,1.194,0.3980381,0,51.21,59.26,33.6,35.51
"2016-02-29 05:30:00",224590,1.159,45.18,2.118,89.5,0,0,861.7444,0,23.68,2.932,192,0.603,1.194,0.4245739,0,51.21,59.26,33.6,35.51
"2016-02-29 05:40:00",224591,1.113,111.6,2.152,90.2,0,0,861.6539,0,23.5,2.934,190,0.605,1.196,0.4890182,0,51.27,59.26,33.61,35.51
"2016-02-29 05:50:00",224592,0.709,76.52,2.005,93.5,0,0,861.4684,0,23.52,2.935,191,0.6,1.194,0.3942472,0,51.21,59.26,33.6,35.51
"2016-02-29 06:00:00",224593,0.791,117.3,1.764,99.3,0,0,861.4305,0,23.57,2.934,190,0.595,1.194,0.2084961,0,51.27,59.26,33.61,35.51
"2016-02-29 06:10:00",224594,0.61,48.39,1.703,100,0,0,861.4305,0.5,23.73,2.934,190,0.604,1.19,0.1857511,0,51.21,59.26,33.6,35.51
"2016-02-29 06:20:00",224595,0.621,133.1,1.684,100,0.01179489,0,861.2324,0,23.69,2.934,190,0.596,1.187,0.3904564,0.145,51.27,59.2,33.61,35.5
"2016-02-29 06:30:00",224596,0.801,148.3,1.724,100,0.4639322,0,861.0196,0,23.62,2.934,190,0.597,1.182,0.8756837,2.343,51.27,59.26,33.61,35.51
"2016-02-29 06:40:00",224597,0.811,150.9,1.739,100,1.600173,0,860.9543,0,23.66,2.934,191,0.598,1.191,1.31163,0.837,51.21,59.26,33.6,35.51
"2016-02-29 06:50:00",224598,0.557,110.8,1.707,100,5.036417,0,860.9142,0,23.61,2.935,191,0.6,1.191,3.222213,0.712,51.21,59.26,33.6,35.51
"2016-02-29 07:00:00",224599,0.7,124.2,1.732,100,10.07283,0,860.6973,0,23.46,2.936,190,0.596,1.191,5.633186,0.566,51.21,59.26,33.6,35.51
"2016-02-29 07:10:00",224600,0.572,70.68,1.667,100,6.935394,0,860.6719,0,23.5,2.937,192,0.6,1.189,4.097897,0.597,51.21,59.26,33.6,35.51
"2016-02-29 07:20:00",224601,0.487,90.2,1.562,100,19.36721,0,860.4823,0,23.61,2.935,192,0.598,1.191,9.950952,0.513,51.21,59.2,33.6,35.5
"2016-02-29 07:30:00",224602,0.68,138.1,1.635,100,15.54173,0,860.4276,0,23.5,2.937,191,0.607,1.196,8.006251,0.516,51.21,59.26,33.6,35.51
"2016-02-29 07:40:00",224603,1.1,149,1.561,100,30.99697,0,860.4085,0,23.56,2.936,190,0.605,1.193,15.73577,0.508,51.21,59.2,33.6,35.5
"2016-02-29 07:50:00",224604,0.948,142.3,1.687,100,32.53816,0,860.278,0,23.56,2.935,190,0.603,1.196,16.54701,0.509,51.21,59.2,33.6,35.5
"2016-02-29 08:00:00",224605,1.074,157.4,1.694,100,31.82654,0,860.1641,0.5,23.51,2.936,191,0.615,1.196,16.23616,0.509,51.21,59.2,33.6,35.5
"2016-02-29 08:10:00",224606,0.913,142,1.789,100,19.04088,0,859.8692,0,23.46,2.936,192,0.619,1.196,10.07226,0.528,51.21,59.2,33.6,35.5
"2016-02-29 08:20:00",224607,0.912,153.4,1.942,100,28.97611,0,859.5805,0,23.4,2.935,189,0.613,1.196,15.56897,0.537,51.21,59.2,33.6,35.5
"2016-02-29 08:30:00",224608,0.614,37.98,1.987,100,29.03115,0,859.3994,0,23.72,2.933,192,0.615,1.195,15.58414,0.537,51.21,59.2,33.6,35.5
"2016-02-29 08:40:00",224609,0.574,16.13,1.954,100,15.32942,0,859.2772,0,23.57,2.934,191,0.613,1.196,8.427034,0.557,51.21,59.2,33.6,35.5
"2016-02-29 08:50:00",224610,0.631,50.01,1.776,100,13.28498,0,859.2645,0,23.62,2.934,191,0.607,1.194,7.164685,0.54,51.21,59.2,33.6,35.5
"2016-02-29 09:00:00",224611,0.628,59.55,1.797,100,11.64155,0,859.1971,0,23.41,2.937,191,0.622,1.193,6.383772,0.549,51.27,59.2,33.61,35.5
"2016-02-29 09:10:00",224612,0.348,30.58,1.691,100,23.58584,0,858.9568,0,23.28,2.939,189,0.615,1.194,12.51356,0.529,51.21,59.2,33.6,35.5
"2016-02-29 09:20:00",224613,0.266,299.9,1.387,100,26.7508,0,858.7083,0.5,23.55,2.937,189,0.615,1.194,13.93891,0.52,51.21,59.2,33.6,35.5
"2016-02-29 09:30:00",224614,0.414,47.51,1.417,100,28.40209,0,858.3986,0,23.4,2.938,189,0.616,1.194,14.8146,0.52,51.21,59.2,33.6,35.5
"2016-02-29 09:40:00",224615,0.302,39.54,1.454,100,14.80652,0,858.2047,0,23.25,2.94,170,0.617,1.192,7.8205,0.531,51.21,59.2,33.6,35.5
"2016-02-29 09:50:00",224616,0.428,23.19,1.209,100,15.82481,0,858.4807,0.5,23,2.945,169,0.616,1.194,9.882716,0.613,51.21,59.2,33.6,35.5
"2016-02-29 10:00:00",224617,0.366,2.655,0.657,100,33.69013,0,858.6408,0.5,23.07,2.946,195,0.61,1.196,20.1104,0.605,51.21,59.2,33.6,35.5
"2016-02-29 10:10:00",224618,0.138,29.08,0.665,100,26.71542,0,858.6493,0,23.12,2.945,193,0.61,1.196,15.12166,0.567,51.21,59.2,33.6,35.5
"2016-02-29 10:20:00",224619,0.536,96.3,0.769,100,17.74737,0,858.5734,0,23.02,2.946,187,0.612,1.196,10.27317,0.579,51.21,59.2,33.6,35.5
"2016-02-29 10:30:00",224620,0.27,18.21,0.707,100,18.65951,0,858.3965,0.5,23.14,2.945,181,0.613,1.196,11.55448,0.618,51.21,59.2,33.6,35.5
"2016-02-29 10:40:00",224621,0.094,56.14,0.565,100,42.37117,0,858.3311,0.5,23.21,2.945,189,0.615,1.194,25.49718,0.603,51.21,59.2,33.6,35.5
"2016-02-29 10:50:00",224622,0.126,53.92,0.302,100,45.72878,0,858.1942,0.5,23.34,2.946,194,0.615,1.196,30.07651,0.661,51.21,59.2,33.6,35.5
"2016-02-29 11:00:00",224623,0.211,300.7,0.055,100,40.81031,0,858.0782,0.5,23.59,2.944,191,0.616,1.196,31.17586,0.762,51.27,59.2,33.61,35.5
"2016-02-29 11:10:00",224624,0.638,111.3,0.03,100,52.48332,0,857.9498,0,23.54,2.945,189,0.616,1.196,43.21556,0.824,51.27,59.2,33.61,35.5
"2016-02-29 11:20:00",224625,0.556,71.67,-0.035,100,42.08809,0,857.7791,0,23.79,2.942,188,0.613,1.196,33.73467,0.803,51.27,59.2,33.61,35.5
"2016-02-29 11:30:00",224626,0.291,2.647,0.142,100,21.04601,0,857.6464,0,23.54,2.944,192,0.61,1.196,17.8738,0.849,51.21,59.2,33.6,35.5
"2016-02-29 11:40:00",224627,0.175,51.51,0.034,100,22.75234,0,857.4251,0,23.59,2.944,191,0.616,1.196,19.01105,0.836,51.27,59.2,33.61,35.5
"2016-02-29 11:50:00",224628,0.501,313.9,-0.092,100,25.59884,0,857.2734,0,23.63,2.945,190,0.605,1.194,21.49784,0.839,51.21,59.2,33.6,35.5
"2016-02-29 12:00:00",224629,0.58,22.72,-0.197,100,27.5214,0,856.9827,0.5,23.78,2.943,190,0.614,1.189,23.93156,0.872,51.21,59.2,33.6,35.5
"2016-02-29 12:10:00",224630,0.244,327.7,-0.148,100,24.98157,0,856.8457,0,23.63,2.945,187,0.61,1.193,24.14006,0.962,51.27,59.2,33.61,35.5
"2016-02-29 12:20:00",224631,0.073,327.5,-0.289,100,24.29747,0,856.6266,0,23.72,2.945,193,0.604,1.189,25.0347,1.04,51.27,59.2,33.61,35.5
"2016-02-29 12:30:00",224632,0,0,-0.297,100,21.69866,0,856.517,0.5,23.13,2.95,203,0.613,1.193,29.39416,1.356,51.27,59.2,33.61,35.5
"2016-02-29 12:40:00",224633,0,0,-0.257,100,22.54396,0,856.359,0.5,24.18,2.94,189,0.601,1.187,40.42171,1.81,51.21,59.2,33.6,35.5
"2016-02-29 12:50:00",224634,0,0,-0.413,100,15.0031,0,856.1442,0.5,24.29,2.94,192,0.614,1.194,32.54814,2.169,51.21,59.2,33.6,35.5
"2016-02-29 13:00:00",224635,0,0,-0.519,100,14.28754,0,856.0472,0,24.75,2.935,189,0.609,1.187,32.35481,2.263,51.27,59.2,33.61,35.5
"2016-02-29 13:10:00",224636,0,0,-0.549,100,9.762236,0,855.8639,0,24.92,2.934,170,0.608,1.187,22.88908,2.341,51.21,59.2,33.6,35.5
"2016-02-29 13:20:00",224637,0,0,-0.721,100,8.71249,0,855.7396,0,24.93,2.935,175,0.624,1.173,20.3985,2.328,51.21,59.2,33.6,35.5
"2016-02-29 13:30:00",224638,0,0,-0.876,100,15.04241,0,855.5541,0.5,24.96,2.935,177,0.629,1.154,37.06682,2.456,51.21,59.2,33.6,35.5
"2016-02-29 13:40:00",224639,0,0,-0.923,100,9.101721,0,855.4551,0,24.93,2.936,190,0.634,1.147,22.32804,2.453,51.27,59.2,33.61,35.5
"2016-02-29 13:50:00",224640,0,0,-1.088,100,10.3913,0,855.6089,0.5,25.44,2.932,197,0.633,1.162,26.59652,2.547,51.21,59.2,33.6,35.5
"2016-02-29 14:00:00",224641,0,0,-1.12,100,11.54326,0,855.3666,0.5,25.56,2.931,186,0.634,1.124,32.17285,2.795,51.27,59.2,33.61,35.5
"2016-02-29 14:10:00",224642,0,0,-1.626,100,12.84857,0,855.3835,0,25.76,2.933,199,0.634,1.129,38.58315,2.998,51.27,59.2,33.61,35.5
"2016-02-29 14:20:00",224643,0,0,-2.184,100,17.69626,0,855.3624,0.5,26.27,2.93,178,0.634,1.143,49.01554,2.754,51.21,59.2,33.6,35.5
"2016-02-29 14:30:00",224644,0,0,-2.263,100,18.25455,0,855.3645,0,26.57,2.926,204,0.634,1.153,55.44481,3.036,51.21,59.2,33.6,35.5
"2016-02-29 14:40:00",224645,0,0,-2.139,100,17.91644,0,855.4488,0,26.04,2.932,194,0.633,1.152,57.53356,3.202,51.21,59.2,33.6,35.5
"2016-02-29 14:50:00",224646,0,0,-2.54,100,15.93882,0,855.4256,0,25.78,2.937,194,0.631,1.151,47.01777,2.907,51.27,59.2,33.61,35.5
"2016-02-29 15:00:00",224647,0,0,-2.9,100,9.243259,0,855.5331,0.5,27.01,2.926,191,0.62,1.153,24.75797,2.686,51.21,59.2,33.6,35.5
"2016-02-29 15:10:00",224648,0,0,-3.091,99.5,7.297104,0,855.8027,0,27.26,2.924,186,0.601,1.187,24.42816,3.37,51.27,59.2,33.61,35.5
"2016-02-29 15:20:00",224649,0,0,-3.119,99.3,6.204111,0,855.6068,0.5,27.43,2.922,206,0.602,1.189,23.67,3.823,51.27,59.2,33.61,35.5
"2016-02-29 15:30:00",224650,0,0,-3.211,98.2,5.468896,0,855.5689,0,28.79,2.91,194,0.605,1.192,20.75484,3.8,51.27,59.2,33.61,35.5
"2016-02-29 15:40:00",224651,0,0,-3.349,97.3,5.830606,0,855.5057,0.5,28.87,2.909,201,0.599,1.195,23.72307,4.058,51.27,59.2,33.61,35.5
"2016-02-29 15:50:00",224652,0,0,-3.405,98.9,8.095224,0,854.9789,0,29.33,2.905,205,0.592,1.189,37.00616,4.555,51.27,59.2,33.61,35.5
"2016-02-29 16:00:00",224653,0,0,-3.407,98.3,10.51711,0,854.9011,0,29.13,2.907,193,0.591,1.181,51.25593,4.872,51.27,59.2,33.61,35.5
"2016-02-29 16:10:00",224654,0,0,-3.357,97.3,10.78839,0,855.0443,0,28.8,2.909,199,0.592,1.154,54.13697,5.015,51.27,59.2,33.61,35.5
"2016-02-29 16:20:00",224655,0,0,-3.152,94.7,12.79745,0,855.0654,0.5,29.22,2.904,196,0.591,1.171,67.69301,5.296,51.27,59.2,33.61,35.5
"2016-02-29 16:30:00",224656,0,0,-3.036,92.6,9.837042,0,855.0211,0,28.92,2.907,198,0.599,1.193,54.00488,5.487,51.27,59.2,33.61,35.5
"2016-02-29 16:40:00",224657,0,0,-2.816,91.4,10.74966,0,854.8547,0,28.58,2.909,194,0.613,1.203,60.85386,5.662,51.27,59.2,33.61,35.5
"2016-02-29 16:50:00",224658,0,0,-2.94,89.6,12.12197,0,854.6988,0,28.29,2.914,218,0.61,1.205,64.54687,5.321,51.27,59.2,33.61,35.5
"2016-02-29 17:00:00",224659,0,0,-3.122,90,6.294794,0,854.5007,0,28.79,2.909,198,0.602,1.175,31.18851,4.931,51.27,59.2,33.61,35.5
"2016-02-29 17:10:00",224660,0,0,-3.404,90.7,4.674786,0,854.3574,0,29.18,2.907,214,0.595,1.138,18.3783,3.862,51.27,59.2,33.61,35.5
"2016-02-29 17:20:00",224661,0,0,-3.635,93.4,2.158477,0,854.3511,0,29.49,2.905,200,0.592,1.114,8.578715,4.014,51.21,59.2,33.6,35.5
"2016-02-29 17:30:00",224662,0,0,-3.848,93.4,1.667013,0,854.3701,0,30.06,2.9,177,0.593,1.117,5.356463,3.244,51.27,59.2,33.61,35.5
"2016-02-29 17:40:00",224663,0,0,-3.935,94.8,0.809918,0,854.3514,0,30.15,2.9,182,0.609,1.15,2.843137,3.513,51.27,59.2,33.61,35.5
"2016-02-29 17:50:00",224664,0,0,-4.06,96.4,0.2948843,0,854.3455,0,31.5,2.887,372,0.626,1.143,0.8681398,3.085,51.21,59.2,33.6,35.5
"2016-02-29 18:00:00",224665,0,0,-4.169,97.7,0.2595233,0,854.3268,0.5,31.38,2.889,192,0.601,1.111,0.1933543,0.803,51.27,59.2,33.61,35.5
"2016-02-29 18:10:00",224666,0,0,-4.242,99.3,0.1887603,0,854.3225,0,28.96,2.913,205,0.61,1.127,0.01516731,0,51.27,59.2,33.61,35.5
"2016-02-29 18:20:00",224667,0,0,-4.224,99.8,0.007865416,0,854.3007,0,29.43,2.908,205,0.619,1.139,0.08342178,0,51.27,59.2,33.61,35.5
"2016-02-29 18:30:00",224668,0,0,-4.374,99.3,0.1651796,0,854.2039,0,30.19,2.902,204,0.627,1.146,0.01516779,0,51.27,59.2,33.61,35.5
"2016-02-29 18:40:00",224669,0,0,-4.391,100,0.05112763,0,854.2165,0,30.73,2.896,198,0.632,1.152,0.09101001,0.032,51.27,59.2,33.61,35.5
"2016-02-29 18:50:00",224670,0,0,-4.554,99.9,0.2241782,0,854.2423,0,31.02,2.894,198,0.635,1.153,0,0,51.27,59.2,33.61,35.5
"2016-02-29 19:00:00",224671,0,0,-4.661,100,0.1927153,0,854.3351,0,31.02,2.895,197,0.637,1.156,0.003792123,0.016,51.27,59.2,33.61,35.5
"2016-02-29 19:10:00",224672,0,0,-4.745,100,0.1691176,0,854.4257,0,30.96,2.896,192,0.644,1.156,0.00379213,0.016,51.27,59.2,33.61,35.5
"2016-02-29 19:20:00",224673,0,0,-4.793,100,0.007865938,0,854.3014,0,31.14,2.894,196,0.641,1.155,0,0,51.21,59.2,33.6,35.5
"2016-02-29 19:30:00",224674,0,0,-4.908,100,0.1612517,0,854.255,0,31.25,2.895,190,0.644,1.157,0,0,51.27,59.2,33.61,35.5
"2016-02-29 19:40:00",224675,0,0,-5.175,98.2,0.4365596,0,854.177,0,31.35,2.894,176,0.662,1.176,0,0,51.27,59.2,33.61,35.5
"2016-02-29 19:50:00",224676,0,0,-5.387,99.9,0.4601574,0,854.3436,0,31.67,2.894,190,0.675,1.194,0.02654491,0.046,51.27,59.2,33.61,35.5
"2016-02-29 20:00:00",224677,0,0,-6.177,99.2,1.116963,0,854.6766,0,31.75,2.896,170,0.678,1.197,0,0,51.27,59.2,33.61,35.5
"2016-02-29 20:10:00",224678,0,0,-6.509,99.3,0.8534543,0,854.7272,0,31.66,2.899,179,0.678,1.211,0,0,51.27,59.2,33.61,35.5
"2016-02-29 20:20:00",224679,0,0,-6.755,96.1,0.8062586,0,854.8663,0,31.68,2.9,178,0.682,1.238,0,0,51.27,59.2,33.61,35.5
"2016-02-29 20:30:00",224680,0,0,-6.896,95.2,0.4758892,0,854.9443,0,31.58,2.901,174,0.703,1.239,0,0,51.27,59.2,33.61,35.5
"2016-02-29 20:40:00",224681,0,0,-6.986,94.1,0.2359781,0,854.9401,0,31.62,2.902,178,0.706,1.239,0.007584261,0.032,51.27,59.2,33.61,35.5
"2016-02-29 20:50:00",224682,0,0,-7.153,94,0.2359781,0,854.9401,0,31.67,2.902,187,0.704,1.239,0.01516852,0.064,51.27,59.2,33.61,35.5
"2016-02-29 21:00:00",224683,0,0,-7.22,95.1,0.2163133,0,854.9,0,31.62,2.902,191,0.672,1.238,0.00379213,0,51.27,59.2,33.61,35.5
"2016-02-29 21:10:00",224684,0,0,-7.266,96.4,0.1533858,0,855.0096,0,31.56,2.904,191,0.658,1.235,0.0758426,0.016,51.27,59.2,33.61,35.5
"2016-02-29 21:20:00",224685,0,0,-7.218,95.6,0.03932969,0,854.9548,0,31.47,2.904,191,0.654,1.222,0.1896065,0.064,51.27,59.2,33.61,35.5
"2016-02-29 21:30:00",224686,0,0,-7.284,92.6,0.007865938,0,854.9443,0,31.51,2.904,191,0.648,1.217,0.09101113,0,51.27,59.2,33.61,35.5
"2016-02-29 21:40:00",224687,0,0,-7.278,92.2,0,0,854.7123,0,31.34,2.906,187,0.644,1.215,0.1137639,0,51.27,59.2,33.61,35.5
"2016-02-29 21:50:00",224688,0,0,-7.417,93,0,0,854.6913,0,31.14,2.908,193,0.639,1.202,0.05308982,0,51.27,59.2,33.61,35.5
"2016-02-29 22:00:00",224689,0,0,-7.367,96.5,0,0,854.6913,0,31.52,2.904,193,0.645,1.205,0.2237357,0,51.27,59.2,33.61,35.5
"2016-02-29 22:10:00",224690,0,0,-7.492,97.4,0.09045828,0,854.6829,0.5,32.39,2.897,174,0.637,1.164,0.03412917,0.016,51.27,59.2,33.61,35.5
"2016-02-29 22:20:00",224691,0,0,-7.691,98.1,0.2359781,0,854.6618,0,32.54,2.896,188,0.644,1.201,0,0,51.27,59.2,33.61,35.5
"2016-02-29 22:30:00",224692,0,0,-7.741,98.8,0.2359781,0,854.7798,1,34.73,2.874,179,0.638,1.19,0,0,51.27,59.2,33.61,35.5
"2016-02-29 22:40:00",224693,0,0,-7.79,98.8,0.2359781,0,854.9949,0.5,35.91,2.862,191,0.635,1.178,0,0,51.27,59.2,33.61,35.5
"2016-02-29 22:50:00",224694,0,0,-7.945,96.2,0.4876882,0,855.3847,0.5,36.02,2.863,188,0.635,1.159,0.01137639,0.037,51.27,59.2,33.61,35.5
"2016-02-29 23:00:00",224695,0,0,-8.47,92.4,0.9714434,0,855.6798,0,36.63,2.86,192,0.635,1.155,0,0,51.27,59.2,33.61,35.5
"2016-02-29 23:10:00",224696,0,0,-8.83,90.4,0.8731191,0,855.9643,0.5,36.63,2.861,189,0.653,1.117,0,0,51.27,59.2,33.61,35.5
"2016-02-29 23:20:00",224697,0,0,-8.94,89.3,0.397231,0,856.1435,0,36.41,2.863,175,0.652,1.116,0.01137655,0.032,51.27,59.2,33.61,35.5
"2016-02-29 23:30:00",224698,0,0,-8.92,89.6,0.1061939,0,856.3219,0,36.15,2.866,176,0.623,1.125,0.2161612,0.418,51.27,59.2,33.61,35.5
"2016-02-29 23:40:00",224699,0,0,-8.97,89.7,0.04720091,0,856.4675,0,36.43,2.863,173,0.641,1.15,0.2199676,0.193,51.27,59.2,33.61,35.5
"2016-02-29 23:50:00",224700,0,0,-8.96,90.5,0.07080915,0,856.6176,0,37.06,2.857,190,0.672,1.175,0.1403354,0.129,51.27,59.2,33.61,35.5
